Time,TemperatureF,DewpointF,PressureIn,WindDirection,WindDirectionDegrees,WindSpeedMPH,WindSpeedGustMPH,Humidity,HourlyPrecipIn,Conditions,Clouds,dailyrainin,SoftwareType,DateUTC
2013-01-08 00:00:00,22.2,18.7,29.99,South,188,0.0,0.0,86,0.00,,SCT120,0.00,VWS V14.01,2013-01-08 06:00:00,
2013-01-08 00:10:00,21.7,19.0,29.98,South,188,0.0,0.0,89,0.00,,CLR,0.00,VWS V14.01,2013-01-08 06:10:00,
2013-01-08 00:20:00,21.6,19.1,29.98,SSE,147,3.0,6.3,90,0.00,,CLR,0.00,VWS V14.01,2013-01-08 06:20:00,
2013-01-08 00:30:00,21.7,19.0,29.98,SSE,147,0.0,4.2,89,0.00,,CLR,0.00,VWS V14.01,2013-01-08 06:30:00,
2013-01-08 00:40:00,19.8,16.8,29.98,South,183,5.0,7.3,88,0.00,,CLR,0.00,VWS V14.01,2013-01-08 06:40:00,
2013-01-08 00:50:00,19.8,17.6,29.98,South,183,2.0,5.2,91,0.00,,CLR,0.00,VWS V14.01,2013-01-08 06:50:00,
2013-01-08 01:00:00,20.3,18.1,29.97,South,182,6.0,8.4,91,0.00,,CLR,0.00,VWS V14.01,2013-01-08 07:00:00,
2013-01-08 01:10:00,20.0,17.8,29.97,South,184,1.0,8.4,91,0.00,,CLR,0.00,VWS V14.01,2013-01-08 07:10:00,
2013-01-08 01:20:00,20.7,18.5,29.97,South,184,0.0,3.1,91,0.00,,CLR,0.00,VWS V14.01,2013-01-08 07:20:00,
2013-01-08 01:30:00,20.0,17.5,29.97,SSE,157,2.0,3.1,90,0.00,,CLR,0.00,VWS V14.01,2013-01-08 07:30:00,
2013-01-08 01:40:00,19.5,17.3,29.97,SSE,157,4.0,4.2,91,0.00,,CLR,0.00,VWS V14.01,2013-01-08 07:40:00,
2013-01-08 01:50:00,18.1,15.4,29.97,SSE,157,3.0,4.2,89,0.00,,CLR,0.00,VWS V14.01,2013-01-08 07:50:00,
2013-01-08 02:00:00,17.1,14.9,29.97,SE,138,6.0,6.3,91,0.00,,CLR,0.00,VWS V14.01,2013-01-08 08:00:00,
2013-01-08 02:10:00,15.5,13.1,29.97,SE,138,4.0,7.3,90,0.00,,CLR,0.00,VWS V14.01,2013-01-08 08:10:00,
2013-01-08 02:20:00,16.8,15.1,29.96,SSE,162,3.0,6.3,93,0.00,,CLR,0.00,VWS V14.01,2013-01-08 08:20:00,
2013-01-08 02:30:00,17.5,15.6,29.97,SSE,163,2.0,4.2,92,0.00,,CLR,0.00,VWS V14.01,2013-01-08 08:30:00,
2013-01-08 02:40:00,16.8,14.1,29.96,SSE,163,0.0,2.1,89,0.00,,CLR,0.00,VWS V14.01,2013-01-08 08:40:00,
2013-01-08 02:50:00,16.5,14.6,29.96,SSE,163,4.0,4.2,92,0.00,,CLR,0.00,VWS V14.01,2013-01-08 08:50:00,
2013-01-08 03:00:00,17.8,16.1,29.96,SSE,162,4.0,5.2,93,0.00,,CLR,0.00,VWS V14.01,2013-01-08 09:00:00,
2013-01-08 03:10:00,17.8,16.1,29.96,SSE,162,4.0,4.2,93,0.00,,CLR,0.00,VWS V14.01,2013-01-08 09:10:00,
2013-01-08 03:20:00,17.8,16.1,29.96,SSE,162,4.0,4.2,93,0.00,,CLR,0.00,VWS V14.01,2013-01-08 09:20:00,
2013-01-08 03:30:00,15.9,14.0,29.95,SSE,162,4.0,5.2,92,0.00,,CLR,0.00,VWS V14.01,2013-01-08 09:30:00,
2013-01-08 03:40:00,17.5,15.8,29.95,SSE,162,6.0,6.3,93,0.00,,CLR,0.00,VWS V14.01,2013-01-08 09:40:00,
2013-01-08 03:50:00,16.6,14.7,29.95,SSE,167,3.0,6.3,92,0.00,,CLR,0.00,VWS V14.01,2013-01-08 09:50:00,
2013-01-08 04:00:00,17.7,16.0,29.94,SSE,166,4.0,5.2,93,0.00,,CLR,0.00,VWS V14.01,2013-01-08 10:00:00,
2013-01-08 04:10:00,16.8,14.6,29.94,SSE,166,0.0,5.2,91,0.00,,CLR,0.00,VWS V14.01,2013-01-08 10:10:00,
2013-01-08 04:20:00,13.7,10.8,29.93,ENE,67,0.0,5.2,88,0.00,,CLR,0.00,VWS V14.01,2013-01-08 10:20:00,
2013-01-08 04:30:00,13.0,10.6,29.93,ENE,67,0.0,0.0,90,0.00,,CLR,0.00,VWS V14.01,2013-01-08 10:30:00,
2013-01-08 04:40:00,14.4,12.8,29.93,ESE,105,4.0,5.2,93,0.00,,CLR,0.00,VWS V14.01,2013-01-08 10:40:00,
2013-01-08 04:50:00,14.0,12.1,29.93,ESE,105,0.0,4.2,92,0.00,,CLR,0.00,VWS V14.01,2013-01-08 10:50:00,
2013-01-08 05:00:00,13.4,11.5,29.94,ESE,107,3.0,4.2,92,0.00,,CLR,0.00,VWS V14.01,2013-01-08 11:00:00,
2013-01-08 05:10:00,14.9,13.2,29.93,SE,138,4.0,5.2,93,0.00,,CLR,0.00,VWS V14.01,2013-01-08 11:10:00,
2013-01-08 05:20:00,14.8,12.9,29.93,ESE,121,4.0,5.2,92,0.00,,CLR,0.00,VWS V14.01,2013-01-08 11:20:00,
2013-01-08 05:30:00,14.9,13.0,29.92,ESE,117,3.0,5.2,92,0.00,,CLR,0.00,VWS V14.01,2013-01-08 11:30:00,
2013-01-08 05:40:00,14.5,12.6,29.92,ESE,117,0.0,3.1,92,0.00,,CLR,0.00,VWS V14.01,2013-01-08 11:40:00,
2013-01-08 05:50:00,14.9,13.0,29.92,ESE,117,4.0,4.2,92,0.00,,CLR,0.00,VWS V14.01,2013-01-08 11:50:00,
2013-01-08 06:00:00,15.5,13.6,29.92,East,100,3.0,6.3,92,0.00,,CLR,0.00,VWS V14.01,2013-01-08 12:00:00,
2013-01-08 06:10:00,15.9,14.2,29.92,East,88,3.0,5.2,93,0.00,,SCT120,0.00,VWS V14.01,2013-01-08 12:10:00,
2013-01-08 06:20:00,16.7,15.0,29.91,East,96,6.0,7.3,93,0.00,,SCT120,0.00,VWS V14.01,2013-01-08 12:20:00,
2013-01-08 06:30:00,17.2,15.3,29.92,SE,130,5.0,7.3,92,0.00,,CLR,0.00,VWS V14.01,2013-01-08 12:30:00,
2013-01-08 06:40:00,18.4,16.7,29.93,SE,134,7.0,9.4,93,0.00,,CLR,0.00,VWS V14.01,2013-01-08 12:40:00,
2013-01-08 06:50:00,18.9,17.0,29.92,SE,126,7.0,10.5,92,0.00,,CLR,0.00,VWS V14.01,2013-01-08 12:50:00,
2013-01-08 07:00:00,19.2,17.3,29.92,SE,132,11.0,11.5,92,0.00,,CLR,0.00,VWS V14.01,2013-01-08 13:00:00,
2013-01-08 07:10:00,19.1,16.9,29.92,SE,134,8.0,11.5,91,0.00,,CLR,0.00,VWS V14.01,2013-01-08 13:10:00,
2013-01-08 07:20:00,19.2,17.3,29.92,SE,135,9.0,11.5,92,0.00,,CLR,0.00,VWS V14.01,2013-01-08 13:20:00,
2013-01-08 07:30:00,19.8,17.9,29.92,SE,125,8.0,12.6,92,0.00,,CLR,0.00,VWS V14.01,2013-01-08 13:30:00,
2013-01-08 07:40:00,20.0,17.8,29.91,SE,128,12.0,13.6,91,0.00,,CLR,0.00,VWS V14.01,2013-01-08 13:40:00,
2013-01-08 07:50:00,20.2,18.0,29.91,SE,128,11.0,13.6,91,0.00,,CLR,0.00,VWS V14.01,2013-01-08 13:50:00,
2013-01-08 08:00:00,20.4,17.9,29.90,ESE,115,12.0,14.7,90,0.00,,CLR,0.00,VWS V14.01,2013-01-08 14:00:00,
2013-01-08 08:10:00,20.7,18.2,29.89,ESE,115,10.0,14.7,90,0.00,,CLR,0.00,VWS V14.01,2013-01-08 14:10:00,
2013-01-08 08:20:00,21.2,18.7,29.89,ESE,117,11.0,13.6,90,0.00,,CLR,0.00,VWS V14.01,2013-01-08 14:20:00,
2013-01-08 08:30:00,21.8,18.8,29.89,ESE,121,13.0,14.7,88,0.00,,CLR,0.00,VWS V14.01,2013-01-08 14:30:00,
2013-01-08 08:40:00,21.5,18.2,29.89,SE,128,9.0,14.7,87,0.00,,CLR,0.00,VWS V14.01,2013-01-08 14:40:00,
2013-01-08 08:50:00,22.2,19.2,29.90,SE,132,9.0,14.7,88,0.00,,CLR,0.00,VWS V14.01,2013-01-08 14:50:00,
2013-01-08 09:00:00,21.9,18.9,29.90,SE,146,7.0,10.5,88,0.00,,CLR,0.00,VWS V14.01,2013-01-08 15:00:00,
2013-01-08 09:10:00,22.0,19.3,29.90,SE,126,5.0,7.3,89,0.00,,CLR,0.00,VWS V14.01,2013-01-08 15:10:00,
2013-01-08 09:20:00,22.1,19.4,29.90,SE,125,9.0,10.5,89,0.00,,CLR,0.00,VWS V14.01,2013-01-08 15:20:00,
2013-01-08 09:30:00,22.0,19.3,29.89,ESE,123,9.0,12.6,89,0.00,,CLR,0.00,VWS V14.01,2013-01-08 15:30:00,
2013-01-08 09:40:00,22.7,20.0,29.89,SE,124,10.0,12.6,89,0.00,,CLR,0.00,VWS V14.01,2013-01-08 15:40:00,
2013-01-08 09:50:00,22.9,20.1,29.88,ESE,119,12.0,13.6,89,0.00,,SCT120,0.00,VWS V14.01,2013-01-08 15:50:00,
2013-01-08 10:00:00,23.3,20.5,29.89,SE,136,8.0,12.6,89,0.00,,SCT120,0.00,VWS V14.01,2013-01-08 16:00:00,
2013-01-08 10:10:00,23.4,20.6,29.89,SE,134,9.0,12.6,89,0.00,,BKN110,0.00,VWS V14.01,2013-01-08 16:10:00,
2013-01-08 10:20:00,23.6,21.1,29.88,SE,125,14.0,14.7,90,0.00,,BKN110,0.00,VWS V14.01,2013-01-08 16:20:00,
2013-01-08 10:30:00,23.7,21.2,29.87,SE,126,12.0,15.7,90,0.00,,OVC090,0.00,VWS V14.01,2013-01-08 16:30:00,
2013-01-08 10:40:00,23.9,21.4,29.86,ESE,123,11.0,15.7,90,0.00,,OVC090,0.00,VWS V14.01,2013-01-08 16:40:00,
2013-01-08 10:50:00,24.1,21.9,29.86,SE,128,13.0,15.7,91,0.00,,OVC090,0.00,VWS V14.01,2013-01-08 16:50:00,
2013-01-08 11:00:00,24.3,22.1,29.85,SE,124,15.0,15.7,91,0.00,,OVC090,0.00,VWS V14.01,2013-01-08 17:00:00,
2013-01-08 11:10:00,24.6,22.4,29.86,SE,132,11.0,15.7,91,0.00,,OVC090,0.00,VWS V14.01,2013-01-08 17:10:00,
2013-01-08 11:20:00,25.2,23.2,29.86,SE,142,11.0,14.7,92,0.00,,OVC090,0.00,VWS V14.01,2013-01-08 17:20:00,
2013-01-08 11:30:00,25.6,23.6,29.84,SE,136,11.0,12.6,92,0.00,,OVC080,0.00,VWS V14.01,2013-01-08 17:30:00,
2013-01-08 11:40:00,25.7,23.7,29.82,ESE,120,16.0,17.8,92,0.00,,OVC080,0.00,VWS V14.01,2013-01-08 17:40:00,
2013-01-08 11:50:00,25.7,23.7,29.81,ESE,113,17.0,22.0,92,0.00,,OVC075,0.00,VWS V14.01,2013-01-08 17:50:00,
2013-01-08 12:00:00,25.8,24.1,29.78,ESE,107,21.0,23.1,93,0.00,,OVC075,0.00,VWS V14.01,2013-01-08 18:00:00,
2013-01-08 12:10:00,26.2,24.5,29.77,ESE,111,18.0,24.1,93,0.00,,OVC075,0.00,VWS V14.01,2013-01-08 18:10:00,
2013-01-08 12:20:00,26.2,24.2,29.75,ESE,111,22.0,26.2,92,0.00,,OVC075,0.00,VWS V14.01,2013-01-08 18:20:00,
2013-01-08 12:30:00,26.3,24.3,29.75,ESE,123,25.0,28.3,92,0.00,,OVC110,0.00,VWS V14.01,2013-01-08 18:30:00,
2013-01-08 12:40:00,26.3,24.3,29.75,SE,126,18.0,26.2,92,0.00,,OVC110,0.00,VWS V14.01,2013-01-08 18:40:00,
2013-01-08 12:50:00,26.2,24.2,29.72,ESE,111,25.0,30.4,92,0.00,,OVC110,0.00,VWS V14.01,2013-01-08 18:50:00,
2013-01-08 13:00:00,26.4,24.6,29.74,SSE,149,18.0,27.3,93,0.00,,OVC110,0.00,VWS V14.01,2013-01-08 19:00:00,
2013-01-08 13:10:00,27.0,25.0,29.76,SSE,161,13.0,22.0,92,0.00,,BKN110,0.00,VWS V14.01,2013-01-08 19:10:00,
2013-01-08 13:20:00,27.4,25.4,29.75,South,169,10.0,18.9,92,0.00,,BKN110,0.00,VWS V14.01,2013-01-08 19:20:00,
2013-01-08 13:30:00,27.4,25.1,29.76,SSE,163,9.0,18.9,91,0.00,,OVC110,0.00,VWS V14.01,2013-01-08 19:30:00,
2013-01-08 13:40:00,27.4,25.1,29.77,SSE,159,9.0,15.7,91,0.00,,OVC110,0.00,VWS V14.01,2013-01-08 19:40:00,
2013-01-08 13:50:00,27.3,25.0,29.75,SE,140,13.0,19.9,91,0.00,,OVC110,0.00,VWS V14.01,2013-01-08 19:50:00,
2013-01-08 14:00:00,27.6,25.6,29.76,SE,144,11.0,17.8,92,0.00,,OVC110,0.00,VWS V14.01,2013-01-08 20:00:00,
2013-01-08 14:10:00,27.9,25.6,29.76,SSE,165,9.0,15.7,91,0.00,,OVC100,0.00,VWS V14.01,2013-01-08 20:10:00,
2013-01-08 14:20:00,27.8,25.5,29.75,SSE,149,11.0,16.8,91,0.00,,OVC100,0.00,VWS V14.01,2013-01-08 20:20:00,
2013-01-08 14:30:00,27.9,25.6,29.75,SSE,158,9.0,16.8,91,0.00,,OVC090,0.00,VWS V14.01,2013-01-08 20:30:00,
2013-01-08 14:40:00,28.0,25.7,29.75,SE,146,14.0,16.8,91,0.00,,OVC090,0.00,VWS V14.01,2013-01-08 20:40:00,
2013-01-08 14:50:00,28.1,26.1,29.76,SSE,163,8.0,15.7,92,0.00,,BKN120,0.00,VWS V14.01,2013-01-08 20:50:00,
2013-01-08 15:00:00,28.4,26.1,29.76,South,173,7.0,12.6,91,0.00,,BKN120,0.00,VWS V14.01,2013-01-08 21:00:00,
2013-01-08 15:10:00,28.5,26.2,29.76,SSE,167,5.0,12.6,91,0.00,,BKN120,0.00,VWS V14.01,2013-01-08 21:10:00,
2013-01-08 15:20:00,28.6,26.6,29.76,South,184,6.0,13.6,92,0.00,,BKN120,0.00,VWS V14.01,2013-01-08 21:20:00,
2013-01-08 15:30:00,29.0,27.0,29.76,South,171,12.0,15.7,92,0.00,,SCT120,0.00,VWS V14.01,2013-01-08 21:30:00,
2013-01-08 15:40:00,29.3,27.0,29.77,South,176,9.0,17.8,91,0.00,,SCT120,0.00,VWS V14.01,2013-01-08 21:40:00,
2013-01-08 15:50:00,29.1,26.8,29.76,South,178,10.0,13.6,91,0.00,,CLR,0.00,VWS V14.01,2013-01-08 21:50:00,
2013-01-08 16:00:00,28.9,26.6,29.77,South,171,5.0,16.8,91,0.00,,CLR,0.00,VWS V14.01,2013-01-08 22:00:00,
2013-01-08 16:10:00,28.7,26.4,29.77,South,182,8.0,12.6,91,0.00,,CLR,0.00,VWS V14.01,2013-01-08 22:10:00,
2013-01-08 16:20:00,29.0,26.7,29.78,South,180,5.0,12.6,91,0.00,,CLR,0.00,VWS V14.01,2013-01-08 22:20:00,
2013-01-08 16:30:00,29.0,26.7,29.78,South,182,10.0,12.6,91,0.00,,,0.00,VWS V14.01,2013-01-08 22:30:00,
2013-01-08 16:40:00,29.0,26.7,29.77,South,182,10.0,10.5,91,0.00,,,0.00,VWS V14.01,2013-01-08 22:40:00,
2013-01-08 16:50:00,29.0,26.7,29.78,South,182,10.0,10.5,91,0.00,,CLR,0.00,VWS V14.01,2013-01-08 22:50:00,
2013-01-08 17:00:00,28.1,26.1,29.77,SSW,198,11.0,14.7,92,0.00,,CLR,0.00,VWS V14.01,2013-01-08 23:00:00,
2013-01-08 17:10:00,27.5,25.5,29.78,SSW,193,8.0,12.6,92,0.00,,CLR,0.00,VWS V14.01,2013-01-08 23:10:00,
2013-01-08 17:20:00,27.2,25.2,29.78,SSW,198,9.0,11.5,92,0.00,,CLR,0.00,VWS V14.01,2013-01-08 23:20:00,
2013-01-08 17:30:00,26.8,24.8,29.78,SSW,198,7.0,10.5,92,0.00,,CLR,0.00,VWS V14.01,2013-01-08 23:30:00,
2013-01-08 17:40:00,25.9,23.9,29.79,SSW,203,7.0,8.4,92,0.00,,CLR,0.00,VWS V14.01,2013-01-08 23:40:00,
2013-01-08 17:50:00,25.5,23.8,29.79,SW,220,7.0,10.5,93,0.00,,CLR,0.00,VWS V14.01,2013-01-08 23:50:00,
2013-01-08 18:00:00,26.5,24.8,29.80,SW,219,8.0,10.5,93,0.00,,CLR,0.00,VWS V14.01,2013-01-09 00:00:00,
2013-01-08 18:10:00,28.0,26.0,29.81,SW,225,11.0,13.6,92,0.00,,CLR,0.00,VWS V14.01,2013-01-09 00:10:00,
2013-01-08 18:20:00,29.2,27.2,29.81,WSW,239,11.0,13.6,92,0.00,,CLR,0.00,VWS V14.01,2013-01-09 00:20:00,
2013-01-08 18:30:00,29.7,27.1,29.81,SW,222,4.0,12.6,90,0.00,,CLR,0.00,VWS V14.01,2013-01-09 00:30:00,
2013-01-08 18:40:00,29.5,26.9,29.81,WSW,239,5.0,12.6,90,0.00,,CLR,0.00,VWS V14.01,2013-01-09 00:40:00,
2013-01-08 18:50:00,29.4,26.6,29.82,SW,221,11.0,14.7,89,0.00,,CLR,0.00,VWS V14.01,2013-01-09 00:50:00,
2013-01-08 19:00:00,29.2,26.4,29.82,SW,220,13.0,14.7,89,0.00,,CLR,0.00,VWS V14.01,2013-01-09 01:00:00,
2013-01-08 19:10:00,28.2,25.1,29.83,WNW,292,5.0,13.6,88,0.00,,CLR,0.00,VWS V14.01,2013-01-09 01:10:00,
2013-01-08 19:20:00,26.7,23.9,29.83,West,263,4.0,9.4,89,0.00,,CLR,0.00,VWS V14.01,2013-01-09 01:20:00,
2013-01-08 19:30:00,26.4,23.9,29.84,WNW,286,6.0,11.5,90,0.00,,CLR,0.00,VWS V14.01,2013-01-09 01:30:00,
2013-01-08 19:40:00,26.0,23.5,29.84,SW,222,6.0,11.5,90,0.00,,CLR,0.00,VWS V14.01,2013-01-09 01:40:00,
2013-01-08 19:50:00,25.6,23.3,29.85,WSW,243,7.0,11.5,91,0.00,,CLR,0.00,VWS V14.01,2013-01-09 01:50:00,
2013-01-08 20:00:00,25.8,23.5,29.85,West,264,6.0,11.5,91,0.00,,CLR,0.00,VWS V14.01,2013-01-09 02:00:00,
2013-01-08 20:10:00,26.1,23.8,29.86,SW,227,7.0,12.6,91,0.00,,CLR,0.00,VWS V14.01,2013-01-09 02:10:00,
2013-01-08 20:20:00,27.4,25.4,29.86,West,269,11.0,15.7,92,0.00,,CLR,0.00,VWS V14.01,2013-01-09 02:20:00,
2013-01-08 20:30:00,27.3,24.8,29.87,West,280,8.0,14.7,90,0.00,,CLR,0.00,VWS V14.01,2013-01-09 02:30:00,
2013-01-08 20:40:00,27.8,25.5,29.87,WNW,286,9.0,15.7,91,0.00,,CLR,0.00,VWS V14.01,2013-01-09 02:40:00,
2013-01-08 20:50:00,26.2,23.7,29.88,NNW,338,5.0,11.5,90,0.00,,CLR,0.00,VWS V14.01,2013-01-09 02:50:00,
2013-01-08 21:00:00,26.0,23.7,29.89,SW,215,9.0,12.6,91,0.00,,CLR,0.00,VWS V14.01,2013-01-09 03:00:00,
2013-01-08 21:10:00,25.5,23.2,29.89,SW,223,7.0,12.6,91,0.00,,CLR,0.00,VWS V14.01,2013-01-09 03:10:00,
2013-01-08 21:20:00,25.5,23.5,29.90,SW,221,7.0,11.5,92,0.00,,CLR,0.00,VWS V14.01,2013-01-09 03:20:00,
2013-01-08 21:30:00,25.7,23.4,29.90,SW,225,8.0,10.5,91,0.00,,CLR,0.00,VWS V14.01,2013-01-09 03:30:00,
2013-01-08 21:40:00,25.5,23.5,29.90,SW,225,12.0,12.6,92,0.00,,CLR,0.00,VWS V14.01,2013-01-09 03:40:00,
2013-01-08 21:50:00,25.8,23.8,29.90,WSW,240,6.0,12.6,92,0.00,,SCT120,0.00,VWS V14.01,2013-01-09 03:50:00,
2013-01-08 22:00:00,27.0,25.0,29.91,SSW,198,7.0,14.7,92,0.00,,SCT120,0.00,VWS V14.01,2013-01-09 04:00:00,
2013-01-08 22:10:00,27.2,24.9,29.92,SW,218,12.0,12.6,91,0.00,,BKN110,0.00,VWS V14.01,2013-01-09 04:10:00,
2013-01-08 22:20:00,28.8,26.5,29.92,WSW,252,10.0,12.6,91,0.00,,BKN110,0.00,VWS V14.01,2013-01-09 04:20:00,
2013-01-08 22:30:00,30.1,27.5,29.93,WNW,286,10.0,14.7,90,0.00,,OVC110,0.00,VWS V14.01,2013-01-09 04:30:00,
2013-01-08 22:40:00,30.6,28.0,29.93,West,259,7.0,13.6,90,0.00,,OVC090,0.00,VWS V14.01,2013-01-09 04:40:00,
2013-01-08 22:50:00,31.2,28.3,29.94,WSW,254,10.0,13.6,89,0.00,,OVC090,0.00,VWS V14.01,2013-01-09 04:50:00,
2013-01-08 23:00:00,31.4,28.5,29.95,WSW,243,8.0,12.6,89,0.00,,OVC090,0.00,VWS V14.01,2013-01-09 05:00:00,
2013-01-08 23:10:00,32.3,29.4,29.94,West,280,7.0,14.7,89,0.00,,OVC090,0.00,VWS V14.01,2013-01-09 05:10:00,
2013-01-08 23:20:00,32.4,29.5,29.95,West,273,10.0,10.5,89,0.00,,OVC085,0.00,VWS V14.01,2013-01-09 05:20:00,
2013-01-08 23:30:00,34.0,30.5,29.96,West,267,8.0,15.7,87,0.00,,OVC085,0.00,VWS V14.01,2013-01-09 05:30:00,
2013-01-08 23:40:00,34.8,31.0,29.97,WSW,254,13.0,17.8,86,0.00,,OVC085,0.00,VWS V14.01,2013-01-09 05:40:00,
2013-01-08 23:50:00,34.5,31.6,29.98,WNW,287,5.0,13.6,89,0.00,,OVC065,0.00,VWS V14.01,2013-01-09 05:50:00,